Location: ??
(35.4032°N, 139.3073°E)
Time: 05:58:11
(UTC+00:00)

Cosmos 1943 Rocket - Visible Passes

Search period start: 16 July 2024 00:00
Search period end: 26 July 2024 00:00
Orbit: 811 x 843 km, 71.0° (Epoch: 15 July)

Date Brightness Start Highest point End Pass type
(mag) Time Alt. Az. Time Alt. Az. Time Alt. Az.
16 Jul 2.3 13:21:28 72° N 13:21:28 72° N 13:26:31 10° NNE visible
16 Jul 4.8 15:03:41 10° WNW 15:05:23 11° NW 15:07:06 10° NNW visible
17 Jul 2.1 13:01:48 77° NE 13:01:48 77° NE 13:07:05 10° NNE visible
17 Jul 4.7 14:43:17 10° W 14:45:50 13° NW 14:48:23 10° NNW visible
18 Jul 2.0 12:42:01 73° ESE 12:42:01 73° ESE 12:47:38 10° NNE visible
18 Jul 4.6 14:23:28 11° W 14:26:18 15° NW 14:29:27 10° NNW visible
19 Jul 2.1 12:22:06 60° SE 12:22:36 62° ESE 12:28:09 10° NNE visible
19 Jul 4.5 14:03:32 11° W 14:06:45 17° NW 14:10:23 10° NNW visible
20 Jul 2.3 12:01:59 45° SSE 12:03:11 53° ESE 12:08:39 10° NNE visible
20 Jul 4.4 13:43:23 11° WSW 13:47:13 20° WNW 13:51:14 10° N visible
21 Jul 2.4 11:41:33 30° SSE 11:43:48 46° ESE 11:49:09 10° NE visible
21 Jul 4.3 13:23:22 10° WSW 13:27:43 22° WNW 13:32:03 10° N visible
22 Jul 2.6 11:20:37 17° SSE 11:24:25 39° ESE 11:29:36 10° NE visible
22 Jul 4.1 13:03:35 10° WSW 13:08:12 25° WNW 13:12:50 10° N visible
23 Jul 2.8 11:00:01 10° SSE 11:05:01 34° ESE 11:10:02 10° NE visible
23 Jul 4.0 12:43:50 10° WSW 12:48:42 29° WNW 12:53:34 10° N visible
24 Jul 3.0 10:40:52 10° SSE 10:45:38 29° ESE 10:50:26 10° NE visible
24 Jul 3.8 12:24:09 10° SW 12:29:13 33° WNW 12:34:17 10° N visible
25 Jul 3.2 10:21:46 10° SSE 10:26:17 25° ESE 10:30:46 10° NE visible
25 Jul 3.6 12:04:31 10° SW 12:09:44 38° WNW 12:14:57 10° N visible
